$Date,$Time,DM0201B,DM0203B,DM0205B,DM0207B,DM0209B
03/05/99,00:00:01,68,172,-14,301,965
03/05/99,00:05:01,73,175,-14,293,963
03/05/99,00:10:01,53,165,-14,287,963
03/05/99,00:15:01,68,171,-14,308,963
03/05/99,00:20:01,50,154,-14,318,963
03/05/99,00:25:01,64,174,-14,289,963
03/05/99,00:30:01,76,174,-14,90,963
03/05/99,00:35:01,94,176,-14,154,963
03/05/99,00:40:01,94,176,-14,134,963
03/05/99,00:45:01,103,176,-14,132,963
03/05/99,00:50:01,92,176,-14,144,963
03/05/99,00:55:01,127,175,-14,140,963
03/05/99,01:00:01,116,175,-14,131,963
03/05/99,01:05:01,115,185,-14,143,963
03/05/99,01:10:01,119,175,-14,133,963
03/05/99,01:15:01,122,175,-16,137,963
03/05/99,01:20:01,109,175,-16,140,963
03/05/99,01:25:01,98,175,-16,145,963
03/05/99,01:30:01,103,173,-16,131,963
03/05/99,01:35:01,103,173,-16,148,963
03/05/99,01:40:01,102,173,-16,134,963
03/05/99,01:45:01,92,173,-16,140,963
03/05/99,01:50:01,101,173,-16,142,963
03/05/99,01:55:01,81,173,-16,178,963
03/05/99,02:00:01,93,173,-16,242,963
03/05/99,02:05:01,56,161,-16,131,963
03/05/99,02:10:01,73,180,-16,248,963
03/05/99,02:15:01,60,178,-16,203,963
03/05/99,02:20:01,80,188,-16,177,963
03/05/99,02:25:01,104,182,-16,200,963
03/05/99,02:30:01,104,196,-16,173,963
03/05/99,02:35:01,98,199,-16,129,963
03/05/99,02:40:01,100,199,-16,163,963
03/05/99,02:45:01,114,186,-16,141,963
03/05/99,02:50:01,100,186,-16,170,963
03/05/99,02:55:01,70,194,-16,140,963
03/05/99,03:00:01,106,187,-16,144,963
03/05/99,03:05:01,79,175,-16,121,963
03/05/99,03:10:01,47,180,-16,136,963
03/05/99,03:15:01,78,197,-16,157,961
03/05/99,03:20:01,91,185,-16,173,961
03/05/99,03:25:01,97,176,-16,177,961
03/05/99,03:30:01,97,186,-16,139,961
03/05/99,03:35:01,80,203,-16,101,961
03/05/99,03:40:01,67,191,-16,91,961
03/05/99,03:45:01,57,178,-16,95,961
03/05/99,03:50:01,60,178,-16,99,961
03/05/99,03:55:01,97,190,-16,91,961
03/05/99,04:00:01,147,180,-16,103,961
03/05/99,04:05:01,162,168,-16,101,961
03/05/99,04:10:01,191,178,-16,103,961
03/05/99,04:15:01,162,179,-16,126,961
03/05/99,04:20:01,158,179,-16,161,961
03/05/99,04:25:01,90,168,-16,161,961
03/05/99,04:30:01,27,152,-16,166,961
03/05/99,04:35:01,24,130,-16,164,961
03/05/99,04:40:01,14,135,-16,155,961
03/05/99,04:45:01,1,114,-14,133,961
03/05/99,04:50:01,20,161,-14,108,961
03/05/99,04:55:01,20,126,-14,94,961
03/05/99,05:00:01,51,187,-14,96,961
03/05/99,05:05:01,79,207,-14,98,961
03/05/99,05:10:01,104,190,-16,88,961
03/05/99,05:15:01,85,173,-16,88,961
03/05/99,05:20:01,72,183,-16,90,961
03/05/99,05:25:01,93,183,-16,96,961
03/05/99,05:30:01,68,193,-16,94,961
03/05/99,05:35:01,80,193,-16,92,961
03/05/99,05:40:01,80,183,-16,84,961
03/05/99,05:45:01,84,186,-16,74,961
03/05/99,05:50:01,115,176,-16,68,961
03/05/99,05:55:01,143,185,-16,68,961
03/05/99,06:00:01,155,174,-16,70,961
03/05/99,06:05:01,114,175,-16,76,961
03/05/99,06:10:01,151,182,-16,82,961
03/05/99,06:15:01,171,181,-16,88,961
03/05/99,06:20:01,129,181,-16,88,961
03/05/99,06:25:01,160,181,-16,86,961
03/05/99,06:30:01,137,180,-16,84,961
03/05/99,06:35:01,141,186,-16,88,961
03/05/99,06:40:01,159,178,-16,88,961
03/05/99,06:45:01,152,174,-14,88,961
03/05/99,06:50:01,155,183,-14,92,961
03/05/99,06:55:01,137,189,-14,87,961
03/05/99,07:00:01,158,184,-14,79,961
03/05/99,07:05:01,187,184,-14,75,961
03/05/99,07:10:01,228,184,-16,67,961
03/05/99,07:15:01,235,178,-16,59,961
03/05/99,07:20:01,207,178,-16,51,961
03/05/99,07:25:01,208,178,-16,45,961
03/05/99,07:30:01,191,178,-16,41,961
03/05/99,07:35:01,162,180,-16,41,961
03/05/99,07:40:01,219,180,-16,39,959
03/05/99,07:45:01,209,180,-16,35,959
03/05/99,07:50:01,227,180,-16,31,959
03/05/99,07:55:01,275,180,-16,25,959
03/05/99,08:00:01,234,180,-16,21,959
03/05/99,08:05:01,252,180,-16,21,959
03/05/99,08:10:01,150,181,-16,17,959
03/05/99,08:15:01,251,178,-16,17,959
03/05/99,08:20:01,281,178,-16,15,959
03/05/99,08:25:01,313,178,-16,15,959
03/05/99,08:30:01,246,178,-16,15,959
03/05/99,08:35:01,234,178,-16,13,959
03/05/99,08:40:01,263,176,-16,13,959
03/05/99,08:45:01,226,180,-16,13,959
03/05/99,08:50:01,272,180,-16,13,959
03/05/99,08:55:01,220,170,-16,13,959
03/05/99,09:00:01,161,160,-16,13,959
03/05/99,09:05:01,222,173,-16,9,959
03/05/99,09:10:01,245,168,-16,9,959
03/05/99,09:15:01,212,174,-16,7,959
03/05/99,09:20:01,224,176,-16,5,959
03/05/99,09:25:01,160,165,-16,5,959
03/05/99,09:30:01,100,155,-16,5,959
03/05/99,09:35:01,125,176,-16,3,959
03/05/99,09:40:01,160,164,-16,3,959
03/05/99,09:45:01,111,165,-16,3,959
03/05/99,09:50:01,142,173,-16,3,959
03/05/99,09:55:01,151,181,-16,3,959
03/05/99,10:00:01,28,160,-16,3,959
03/05/99,10:05:01,95,8,-18,3,959
03/05/99,10:10:01,68,331,-18,1,959
03/05/99,10:15:01,26,293,-18,1,959
03/05/99,10:20:01,41,327,-18,1,959
03/05/99,10:25:01,55,308,-18,1,959
03/05/99,10:30:01,52,313,-20,1,959
03/05/99,10:35:01,53,324,-20,1,959
03/05/99,10:40:01,57,314,-20,1,959
03/05/99,10:45:01,47,329,-20,1,959
03/05/99,10:50:01,51,329,-20,1,959
03/05/99,10:55:01,52,307,-20,1,959
03/05/99,11:00:01,52,307,-20,1,959
03/05/99,11:05:01,54,342,-20,1,959
03/05/99,11:10:01,33,338,-20,1,959
03/05/99,11:15:01,37,321,-20,1,959
03/05/99,11:20:01,37,338,-18,1,959
03/05/99,11:25:01,46,325,-18,1,959
03/05/99,11:30:01,57,313,-18,1,959
03/05/99,11:35:01,56,313,-18,1,959
03/05/99,11:40:01,44,303,-18,1,959
03/05/99,11:45:01,42,316,-18,1,959
03/05/99,11:50:01,31,316,-18,1,959
03/05/99,11:55:01,31,300,-18,1,959
03/05/99,12:00:01,44,289,-18,1,959
03/05/99,12:05:01,44,289,-18,1,959
03/05/99,12:10:01,40,289,-18,1,959
03/05/99,12:15:01,40,278,-18,1,959
03/05/99,12:20:01,40,278,-18,1,959
03/05/99,12:25:01,30,290,-18,1,959
03/05/99,12:30:01,30,290,-18,1,959
03/05/99,12:35:01,30,279,-18,1,959
03/05/99,12:40:01,40,295,-18,1,959
03/05/99,12:45:01,30,295,-18,1,959
03/05/99,12:50:01,30,305,-18,1,959
03/05/99,12:55:01,40,315,-18,1,959
03/05/99,13:00:01,50,293,-18,1,959
03/05/99,13:05:01,52,287,-18,1,959
03/05/99,13:10:01,39,308,-18,1,959
03/05/99,13:15:01,43,284,-18,1,959
03/05/99,13:20:01,33,267,-18,1,959
03/05/99,13:25:01,23,308,-18,1,959
03/05/99,13:30:01,16,292,-18,1,959
03/05/99,13:35:01,27,283,-18,1,959
03/05/99,13:40:01,25,260,-18,1,959
03/05/99,13:45:01,19,255,-18,1,959
03/05/99,13:50:01,28,250,-18,1,959
03/05/99,13:55:01,43,250,-18,1,959
03/05/99,14:00:01,21,280,-18,1,959
03/05/99,14:05:01,21,270,-18,1,959
03/05/99,14:10:01,21,284,-18,1,959
03/05/99,14:15:01,30,281,-18,1,959
03/05/99,14:20:01,14,286,-18,1,959
03/05/99,14:25:01,25,286,-18,1,959
03/05/99,14:30:01,12,329,-18,1,959
03/05/99,14:35:01,22,301,-18,1,959
03/05/99,14:40:01,22,311,-18,1,959
03/05/99,14:45:01,12,296,-18,1,959
03/05/99,14:50:01,26,249,-18,1,959
03/05/99,14:55:01,9,298,-18,1,959
03/05/99,15:00:01,18,315,-18,1,959
03/05/99,15:05:01,20,301,-18,1,959
03/05/99,15:10:01,17,345,-18,1,959
03/05/99,15:15:01,8,320,-18,1,959
03/05/99,15:20:01,8,291,-18,1,959
03/05/99,15:25:01,22,291,-18,1,959
03/05/99,15:30:01,16,250,-18,1,959
03/05/99,15:35:01,16,250,-18,1,959
03/05/99,15:40:01,39,250,-18,1,959
03/05/99,15:45:01,37,239,-18,1,959
03/05/99,15:50:01,49,229,-18,1,959
03/05/99,15:55:01,49,240,-18,1,959
03/05/99,16:00:01,38,250,-18,1,959
03/05/99,16:05:01,26,250,-18,1,959
03/05/99,16:10:01,36,250,-18,1,959
03/05/99,16:15:01,21,273,-18,1,959
03/05/99,16:20:01,20,273,-18,1,959
03/05/99,16:25:01,7,322,-18,1,959
03/05/99,16:30:01,21,347,-18,1,959
03/05/99,16:35:01,8,347,-18,1,959
03/05/99,16:40:01,8,347,-18,3,959
03/05/99,16:45:01,8,347,-18,3,959
03/05/99,16:50:01,20,342,-18,3,959
03/05/99,16:55:01,42,327,-18,3,959
03/05/99,17:00:01,36,320,-18,3,959
03/05/99,17:05:01,19,317,-18,3,959
03/05/99,17:10:01,31,317,-18,3,959
03/05/99,17:15:01,9,293,-18,5,959
03/05/99,17:20:01,9,293,-18,5,959
03/05/99,17:25:01,62,353,-18,5,959
03/05/99,17:30:01,22,11,-18,7,959
03/05/99,17:35:01,42,12,-18,9,959
03/05/99,17:40:01,4,12,-18,9,959
03/05/99,17:45:01,4,358,-18,11,959
03/05/99,17:50:01,14,231,-18,11,959
03/05/99,17:55:01,11,350,-18,13,959
03/05/99,18:00:01,23,200,-18,17,959
03/05/99,18:05:01,23,3,-18,21,959
03/05/99,18:10:01,0,235,-18,25,959
03/05/99,18:15:01,0,224,-18,26,959
03/05/99,18:20:01,0,224,-18,26,959
03/05/99,18:25:01,0,213,-18,28,959
03/05/99,18:30:01,0,200,-18,32,959
03/05/99,18:35:01,0,200,-18,38,959
03/05/99,18:40:01,22,211,-18,38,959
03/05/99,18:45:01,17,102,-18,38,959
03/05/99,18:50:01,3,148,-18,36,959
03/05/99,18:55:01,3,148,-18,36,959
03/05/99,19:00:01,3,113,-18,36,959
03/05/99,19:05:01,3,29,-18,36,959
03/05/99,19:10:01,3,71,-18,38,959
03/05/99,19:15:01,3,71,-18,42,959
03/05/99,19:20:01,3,153,-18,44,959
03/05/99,19:25:01,14,163,-18,50,959
03/05/99,19:30:01,4,163,-18,52,959
03/05/99,19:35:01,4,163,-18,54,959
03/05/99,19:40:01,36,340,-18,54,959
03/05/99,19:45:01,25,359,-18,54,959
03/05/99,19:50:01,25,359,-18,56,959
03/05/99,19:55:01,4,319,-18,58,959
03/05/99,20:00:01,4,309,-18,62,959
03/05/99,20:05:01,4,309,-18,64,959
03/05/99,20:10:01,4,309,-18,64,959
03/05/99,20:15:01,4,309,-18,64,959
03/05/99,20:20:01,4,298,-18,64,959
03/05/99,20:25:01,4,298,-18,64,959
03/05/99,20:30:01,4,298,-18,64,959
03/05/99,20:35:01,4,298,-18,70,959
03/05/99,20:40:01,4,319,-18,76,959
03/05/99,20:45:01,4,319,-18,88,959
03/05/99,20:50:01,4,319,-18,102,959
03/05/99,20:55:01,4,319,-18,121,959
03/05/99,21:00:01,4,252,-18,130,959
03/05/99,21:05:01,4,240,-18,128,959
03/05/99,21:10:01,4,240,-18,116,959
03/05/99,21:15:01,4,240,-18,116,959
03/05/99,21:20:01,14,240,-18,131,959
03/05/99,21:25:01,19,216,-18,142,959
03/05/99,21:30:01,9,205,-18,130,959
03/05/99,21:35:01,9,303,-18,134,959
03/05/99,21:40:01,9,335,-18,132,959
03/05/99,21:45:01,21,346,-18,123,959
03/05/99,21:50:01,1,358,-18,119,959
03/05/99,21:55:01,11,321,-18,117,959
03/05/99,22:00:01,12,338,-18,127,959
03/05/99,22:05:01,22,1,-18,125,959
03/05/99,22:10:01,14,1,-18,129,959
03/05/99,22:15:01,13,1,-18,127,959
03/05/99,22:20:01,5,13,-18,135,959
03/05/99,22:25:01,5,13,-18,137,959
03/05/99,22:30:01,5,13,-18,143,959
03/05/99,22:35:01,5,358,-18,145,959
03/05/99,22:40:01,5,267,-18,147,957
03/05/99,22:45:01,18,206,-18,157,957
03/05/99,22:50:01,37,165,-18,170,957
03/05/99,22:55:01,27,180,-16,158,957
03/05/99,23:00:01,2,200,-16,160,957
03/05/99,23:05:01,2,200,-16,154,957
03/05/99,23:10:01,23,290,-16,162,957
03/05/99,23:15:01,22,290,-16,158,957
03/05/99,23:20:01,23,278,-16,158,957
03/05/99,23:25:01,39,311,-16,158,957
03/05/99,23:30:01,16,331,-16,156,957
03/05/99,23:35:01,22,342,-16,156,957
03/05/99,23:40:01,15,18,-16,158,957
03/05/99,23:45:01,14,351,-16,164,957
03/05/99,23:50:01,8,284,-16,172,957
03/05/99,23:55:01,8,284,-16,188,957
03/06/99,00:00:01,8,274,-16,198,957
